Theta_e
352 351 352 355 356 357 357 356 357 357 358 358 359 359 359 358 358 358 358 358 358 357 357 356 356 356 355 355 355 355 355 356 355 355 355 355 355 354 354 354 354 353 354 354 354 354 354 353 353 352 352 352 353 353 352 352 351 351 351 351 351 352 352 351 350 350 349 350 350 348 346 346 346 346 345 343 342 342 341 342 345 343 344 343 343
349 352 352 357 356 357 357 356 357 357 357 358 358 358 358 358 358 358 358 358 357 356 356 356 356 356 355 355 354 355 355 355 355 355 355 354 355 355 354 354 354 354 354 354 354 354 353 353 352 352 352 351 352 352 351 351 350 350 350 350 350 350 350 350 350 350 349 350 348 346 345 347 347 346 346 346 345 344 342 343 345 343 343 343 343
352 354 352 357 357 357 357 356 357 356 357 357 358 358 358 358 357 357 357 357 357 357 356 356 356 356 355 354 354 354 354 354 354 355 355 355 355 355 355 354 354 354 354 354 353 352 352 352 351 351 350 352 351 351 351 350 350 349 349 349 349 349 349 349 348 348 349 348 345 344 346 346 345 345 344 345 345 345 344 345 345 344 344 343 344
353 354 352 358 357 356 356 357 356 356 357 357 357 357 357 357 357 357 357 357 357 356 356 356 356 355 355 354 354 354 354 354 355 355 355 355 355 355 354 354 355 354 354 354 353 352 351 350 350 351 351 351 351 350 349 350 350 350 350 350 349 349 348 347 348 348 347 347 346 347 349 351 347 345 346 345 344 344 344 343 343 343 342 342 341
355 353 353 357 358 357 356 356 356 356 356 356 356 357 357 357 357 357 357 357 356 356 356 356 355 355 354 354 354 354 354 355 355 355 356 355 355 354 355 354 354 354 353 353 352 351 351 351 351 351 351 350 350 351 350 350 350 350 350 350 350 349 347 348 347 346 345 344 343 346 341 342 345 346 346 345 344 344 344 343 343 343 343 343 342
355 353 354 355 355 357 356 355 356 356 356 356 355 356 355 356 356 356 356 356 356 355 355 355 355 355 355 354 354 355 355 355 355 355 355 355 355 355 355 355 354 354 353 352 351 351 351 350 350 351 350 351 351 351 350 350 350 350 350 349 349 350 349 347 346 347 345 345 344 343 341 342 343 347 345 346 345 345 345 344 344 344 343 342 343
355 355 353 353 354 356 355 355 356 356 355 355 355 355 355 355 355 355 355 355 355 355 354 354 354 354 355 354 355 355 355 355 355 354 354 355 355 354 354 354 354 353 353 351 350 350 350 350 350 351 351 351 351 351 351 350 350 350 350 349 348 348 349 348 347 347 348 347 342 340 339 338 342 343 345 345 346 343 343 343 342 341 341 342 341
357 354 352 352 354 356 356 355 355 356 355 355 354 354 355 355 355 355 355 354 354 354 354 354 354 355 355 355 355 355 355 355 355 354 354 355 355 355 354 354 353 352 351 351 350 351 350 351 351 351 351 351 351 351 350 349 348 348 348 349 348 348 348 349 349 348 349 349 341 340 340 340 341 342 345 346 345 343 342 342 343 343 342 341 342
353 352 351 353 354 355 355 355 355 355 355 355 354 354 353 354 354 354 354 354 354 354 354 354 354 355 356 356 356 355 355 355 354 354 354 355 355 355 354 353 352 351 351 350 350 350 350 350 350 351 351 351 350 350 349 348 347 347 347 348 349 349 349 350 350 349 351 347 343 341 341 340 341 342 345 345 345 344 342 343 343 341 341 341 343
353 353 352 354 355 356 355 355 355 355 355 354 354 354 354 354 354 354 354 354 354 354 354 354 355 355 356 356 356 355 355 355 355 354 354 354 354 354 354 353 351 351 351 350 350 350 350 350 350 350 349 349 349 349 349 349 348 347 347 348 348 351 351 351 350 350 353 341 341 341 343 349 339 342 345 346 345 344 344 342 343 347 345 341 341
355 354 354 355 356 355 355 354 355 354 354 354 354 354 354 354 354 354 354 354 354 354 355 355 355 355 356 356 356 355 355 355 355 354 353 353 353 353 353 352 351 350 350 350 350 350 350 350 349 349 349 349 349 349 349 349 348 347 348 349 350 347 350 351 353 353 350 341 340 341 336 338 345 346 345 346 345 345 344 343 343 344 342 342 341
354 356 355 356 358 355 354 353 354 354 354 354 354 354 354 354 353 354 354 354 354 354 355 355 355 355 356 356 355 355 355 355 355 354 353 353 353 353 352 351 350 350 350 349 350 350 350 350 349 348 349 348 348 348 349 348 348 347 348 349 348 347 348 352 352 342 343 340 339 343 340 339 341 347 347 345 344 345 344 343 343 343 342 342 342
356 355 356 358 358 355 354 353 354 354 353 353 353 354 353 353 353 353 354 354 354 355 355 355 355 355 355 355 355 355 355 355 355 354 353 353 353 352 352 351 350 350 349 349 349 349 350 349 349 349 349 348 348 349 349 349 348 348 348 349 348 346 346 347 348 340 340 339 340 342 340 343 344 348 346 347 345 344 344 344 344 344 343 343 343
354 355 358 356 355 356 354 354 353 353 353 353 352 353 353 353 353 354 354 354 354 355 355 355 355 355 355 355 355 355 355 354 354 354 353 353 352 352 352 351 350 350 350 350 349 350 350 350 350 349 348 349 348 349 349 348 348 347 347 349 349 346 345 353 349 342 341 340 342 340 341 343 346 349 347 348 346 344 344 345 344 344 343 343 343
354 356 359 355 354 355 356 354 354 353 353 352 352 353 353 353 353 353 353 354 354 354 355 355 355 355 355 355 355 355 355 354 354 354 353 353 352 353 353 352 351 352 350 350 350 350 350 350 349 349 349 348 349 349 349 348 347 347 347 348 350 347 345 340 339 341 341 340 341 339 340 343 349 348 347 347 348 346 346 346 345 344 344 344 343
356 355 355 355 353 353 354 356 354 354 353 353 353 353 352 353 353 353 353 353 354 354 354 355 355 355 355 355 354 354 354 354 353 353 353 352 351 352 353 353 352 351 351 350 350 350 350 350 349 349 348 349 349 349 349 348 347 347 346 348 349 347 345 347 339 339 340 342 342 343 341 344 347 348 348 348 349 348 347 347 346 345 345 344 344
356 353 352 353 353 353 350 354 354 354 353 353 353 353 353 353 353 353 353 353 354 354 354 354 354 354 354 354 354 354 354 354 353 353 352 352 351 351 351 351 351 351 350 351 350 350 350 349 349 348 348 349 349 349 348 348 347 346 347 346 348 349 343 344 338 339 338 339 339 340 345 344 347 347 347 348 349 348 347 347 346 346 345 344 344
354 353 352 352 351 351 350 351 354 355 355 354 353 353 353 353 353 353 353 353 354 354 354 354 354 354 354 354 354 354 354 353 353 353 352 352 352 351 350 351 350 350 349 350 351 350 349 349 349 348 348 348 348 348 348 346 346 346 344 345 346 349 344 345 339 338 339 339 339 341 344 353 346 349 347 349 349 349 349 347 346 346 345 345 344
352 353 351 352 350 350 350 351 355 353 353 353 353 354 353 353 354 354 354 354 354 354 354 354 354 354 354 354 354 354 354 353 353 352 352 351 351 350 350 350 349 348 347 349 350 350 350 349 349 348 347 349 348 348 347 346 345 344 344 343 344 346 347 344 339 336 337 340 340 341 346 351 349 347 347 348 349 350 349 348 346 345 345 344 344
351 352 351 351 351 349 350 351 353 352 353 353 353 353 354 354 354 354 354 354 354 354 354 354 354 354 354 354 354 354 353 353 352 352 352 351 350 350 350 349 348 347 347 348 349 349 349 348 348 346 348 348 348 346 344 345 345 346 344 344 344 346 348 344 338 336 335 336 338 342 350 350 349 347 347 348 349 350 350 347 345 344 345 344 345
349 350 351 350 350 349 350 351 352 352 354 353 352 352 352 354 354 354 354 354 354 354 355 354 354 354 354 354 354 354 354 354 352 351 351 352 351 350 349 348 347 347 346 347 347 347 347 347 347 347 347 348 346 343 345 344 344 344 346 344 346 344 345 342 341 339 338 337 340 341 347 348 347 347 347 348 350 350 350 345 343 343 344 344 344
344 346 350 350 348 348 348 351 352 353 353 353 352 352 353 353 353 354 354 355 354 354 355 355 354 355 352 354 353 352 349 351 351 351 352 352 352 349 349 348 347 346 346 346 347 345 346 347 347 347 347 345 340 344 349 346 344 344 343 346 344 344 343 343 343 340 340 342 342 345 347 343 346 347 348 347 349 350 351 346 344 343 345 345 344
342 345 347 348 348 349 349 349 351 353 353 353 351 352 352 351 351 352 351 352 353 355 354 353 353 352 354 352 352 352 350 351 351 349 352 349 350 348 348 347 346 346 344 345 345 345 346 346 346 345 343 339 345 339 338 338 345 346 345 346 343 341 342 343 342 342 342 342 342 345 344 342 345 348 349 348 348 350 351 348 345 346 345 345 344
341 344 345 348 348 349 349 350 352 353 352 350 351 351 350 349 349 351 351 352 353 354 353 352 351 352 352 352 351 351 352 353 350 350 350 350 352 349 347 347 346 345 344 345 345 345 345 343 342 340 344 343 339 338 334 335 334 342 343 341 340 341 342 342 339 342 343 340 341 342 343 344 345 347 348 350 349 350 351 348 346 346 346 345 344
343 346 347 347 348 348 348 348 350 352 351 350 349 349 350 346 348 349 349 349 351 351 351 352 351 351 352 352 350 352 351 350 352 351 348 347 347 349 350 349 348 348 343 346 342 347 344 343 345 341 340 338 337 338 336 337 340 340 341 342 343 344 342 343 341 341 343 344 348 342 340 343 344 347 349 349 349 350 350 347 347 345 343 345 345
346 345 345 348 348 348 348 348 350 350 351 350 349 349 351 346 347 348 348 348 350 350 350 350 351 351 351 350 352 351 350 348 350 350 349 349 347 347 347 347 346 349 338 346 343 346 342 344 339 336 337 339 338 338 338 342 341 339 340 343 343 345 344 341 342 344 347 347 350 343 342 343 344 347 348 350 350 350 350 346 345 346 345 346 345
344 346 347 347 347 348 347 348 348 349 350 349 349 349 348 347 348 348 347 347 349 349 348 348 349 352 350 350 349 348 347 346 348 347 347 349 346 347 346 348 350 348 345 343 342 343 342 341 340 340 340 337 334 335 338 340 341 338 340 340 343 343 345 343 343 343 345 344 347 344 343 345 345 347 348 351 352 350 350 347 348 347 346 345 344
345 346 346 347 347 347 347 347 348 349 351 349 348 347 348 347 348 348 348 346 347 348 348 348 349 349 350 350 348 348 347 345 347 345 345 347 345 349 350 349 349 346 347 344 340 338 339 339 341 338 336 334 332 337 338 337 340 341 338 339 342 345 346 343 346 346 345 346 346 349 348 347 348 348 349 352 352 351 350 349 348 347 345 345 345
345 345 346 346 347 347 348 346 348 348 348 348 347 346 347 348 348 348 347 348 348 348 347 349 348 347 349 349 349 347 343 344 345 345 345 345 346 347 348 347 347 346 347 343 342 341 340 339 339 337 336 335 337 340 337 338 342 342 339 337 342 341 345 347 347 344 345 345 345 351 350 350 349 350 352 352 352 350 348 348 347 346 345 345 344
345 344 345 347 347 348 346 346 348 348 347 348 347 346 347 346 346 347 347 349 347 348 349 348 347 346 346 348 347 345 343 343 344 344 342 344 344 346 346 346 346 348 348 346 343 342 341 340 339 336 332 336 337 340 341 339 337 339 338 338 341 342 346 346 346 343 344 345 347 352 350 350 350 351 353 353 350 349 348 347 346 345 344 343 343
347 344 345 345 345 346 346 347 347 350 348 347 347 347 348 347 346 348 346 347 348 349 348 348 347 347 346 348 347 346 343 343 344 344 345 343 344 344 344 347 346 347 347 348 349 345 345 344 340 335 335 336 338 341 337 339 338 335 338 338 342 346 346 347 345 343 342 343 344 346 352 350 350 352 352 350 350 349 348 346 345 344 343 341 340
345 346 346 348 346 346 347 348 348 349 349 347 348 347 348 347 347 346 345 348 349 348 347 347 345 346 347 348 347 345 343 343 344 344 345 345 343 342 344 346 345 346 347 347 346 345 344 341 342 343 346 345 343 341 342 338 337 335 336 338 344 346 345 346 344 343 342 343 343 344 348 350 350 351 351 349 349 349 347 345 344 343 342 342 341
346 347 347 347 347 348 346 347 348 349 349 347 346 346 347 346 346 346 346 347 348 348 346 346 347 347 348 348 347 346 344 343 342 343 344 343 344 344 343 346 347 348 349 351 351 350 345 345 342 342 342 341 343 342 339 341 338 338 338 340 346 345 346 344 345 343 342 342 341 341 345 347 349 349 349 349 348 348 345 344 343 343 342 340 341
346 347 348 347 348 348 347 347 348 349 349 347 348 346 347 346 347 346 346 347 346 346 346 347 346 346 347 347 347 346 344 343 342 342 341 343 344 344 345 345 346 349 349 351 347 345 342 339 336 338 338 340 339 340 339 337 336 337 341 346 347 349 345 343 343 343 342 342 340 340 341 349 345 348 349 347 346 346 345 343 343 342 341 340 339
346 347 347 348 349 349 348 347 349 350 349 349 347 346 348 346 345 345 346 348 346 346 345 346 346 346 346 346 346 345 345 344 344 343 341 343 344 345 344 343 347 348 345 347 345 346 344 341 336 337 338 338 338 340 339 340 338 335 347 348 346 346 347 345 346 343 339 341 341 340 342 345 346 345 346 348 344 342 342 341 341 340 339 338 337
348 347 348 348 348 349 350 349 349 349 348 348 349 348 348 348 346 346 347 348 346 345 345 346 346 345 345 345 346 346 345 345 345 344 341 343 343 344 343 345 347 346 345 348 347 346 343 339 340 340 339 336 335 338 340 338 340 339 347 348 348 346 346 345 345 342 340 340 340 340 344 348 348 347 347 347 347 344 340 340 340 339 339 338 337
348 348 347 347 347 348 348 349 348 349 348 348 348 347 347 348 347 346 347 347 345 346 343 346 345 345 344 343 345 345 345 345 346 345 343 345 344 345 343 347 347 346 347 347 344 343 344 341 342 341 342 336 334 335 338 340 340 344 347 348 347 345 345 345 345 342 339 339 339 340 347 349 349 346 349 347 347 345 340 338 337 336 335 335 334
347 348 348 347 347 348 348 348 349 350 349 347 348 346 347 347 345 345 346 346 346 345 345 344 345 343 345 343 345 346 345 345 346 345 344 345 345 346 346 347 347 346 345 345 343 344 345 342 343 344 342 341 336 337 338 340 341 345 346 345 346 343 342 344 344 339 338 338 340 341 348 348 347 346 346 347 347 344 341 337 334 333 333 332 331
347 347 347 348 348 347 347 349 348 348 348 347 347 347 347 347 346 346 345 345 346 344 344 343 343 344 344 345 345 345 345 345 346 346 345 343 344 344 346 348 346 345 345 344 344 345 345 346 345 345 346 343 338 339 340 341 343 344 344 344 344 343 342 341 341 338 337 340 340 341 349 348 348 347 348 348 347 345 344 342 339 338 333 329 328
345 346 346 348 348 348 347 346 348 347 346 346 345 344 343 343 341 343 343 342 343 342 344 343 344 344 344 345 345 345 344 345 345 346 346 345 345 345 345 348 346 346 344 343 341 342 344 345 344 344 343 342 342 341 342 342 341 343 342 342 342 343 342 342 342 341 340 340 341 342 346 346 346 345 346 345 344 345 340 339 339 336 335 329 328
344 344 346 346 347 346 345 344 347 346 344 344 342 342 341 341 341 341 340 342 341 342 344 344 343 343 344 345 345 345 345 345 345 346 346 345 346 345 346 347 346 345 345 344 344 343 346 346 343 345 341 339 339 341 343 344 339 339 341 341 341 342 343 342 341 340 339 338 339 340 342 342 342 342 343 344 343 342 339 338 336 336 335 335 330
341 343 345 346 346 346 343 343 344 343 344 344 343 342 342 342 341 341 341 340 340 340 340 342 343 343 345 345 346 346 345 346 347 347 347 346 346 345 346 346 346 345 347 346 345 343 345 344 343 340 342 338 338 342 344 343 337 331 328 331 335 338 340 341 339 339 340 339 340 341 344 341 339 340 341 340 342 340 338 337 336 335 335 333 331
342 342 344 345 345 344 344 344 343 344 343 344 344 341 343 344 344 343 341 340 343 344 342 342 344 343 346 346 347 346 345 345 346 346 347 346 347 346 345 345 346 346 345 345 345 344 344 343 343 339 337 339 338 346 347 346 339 338 333 328 327 326 334 335 339 338 338 339 339 340 340 340 339 340 339 338 338 338 336 336 336 335 332 330 328
341 343 343 343 344 343 344 344 342 344 344 344 344 345 345 346 347 347 344 342 342 343 344 343 343 344 344 345 346 347 345 346 346 347 347 348 348 346 346 344 345 346 344 342 343 342 343 342 342 341 339 335 334 341 346 346 343 336 328 328 328 327 322 327 329 334 336 338 338 337 338 336 337 338 339 336 335 335 335 335 333 330 330 329 329
342 343 343 342 342 343 345 344 343 344 345 345 346 346 346 345 344 345 345 343 343 341 341 339 340 342 342 343 345 346 345 345 346 347 346 347 348 347 346 345 344 344 345 342 342 341 341 341 341 340 340 336 334 342 342 344 345 344 338 327 326 324 321 327 329 330 334 334 336 336 336 336 336 336 336 335 336 335 335 333 332 330 330 329 328
341 344 345 344 343 344 345 345 344 344 345 346 347 346 344 341 341 338 337 337 336 337 336 336 337 339 339 343 344 344 344 345 345 347 347 347 348 348 349 347 346 346 344 342 343 342 342 340 340 340 338 341 338 338 339 342 342 342 341 342 340 329 323 327 325 317 330 333 332 332 335 335 336 335 335 335 334 333 333 332 331 330 329 329 327
342 345 345 344 345 344 345 344 344 345 347 347 347 344 342 341 341 340 339 338 337 338 340 341 340 340 343 342 343 345 345 345 347 348 348 348 349 349 349 348 346 346 345 343 342 342 340 340 341 339 338 339 340 337 338 338 339 340 340 340 337 336 334 327 321 323 322 327 329 329 331 333 335 334 333 333 333 333 333 331 329 328 328 328 326
343 344 344 343 344 344 344 344 345 345 347 346 344 345 343 342 341 341 340 339 338 339 342 343 344 342 341 343 345 345 346 346 348 347 348 348 348 350 351 348 345 345 343 342 342 342 341 342 343 343 342 341 342 338 338 338 335 336 339 337 335 336 336 332 330 326 323 322 324 327 328 330 332 333 333 332 332 332 331 329 328 327 327 325 326
343 343 342 343 345 345 344 345 345 345 346 347 345 345 344 343 342 340 339 339 341 341 343 343 342 343 342 343 345 346 347 346 348 348 348 347 348 351 351 348 346 344 343 344 343 343 343 342 343 342 342 343 343 343 342 340 339 336 337 335 335 333 332 332 331 330 325 322 322 323 324 326 328 329 329 330 330 330 331 330 327 327 326 326 325
343 344 344 344 345 345 344 344 344 345 347 347 346 345 345 344 342 342 340 340 341 342 343 341 342 342 343 344 346 345 346 347 348 349 350 349 350 351 349 348 348 346 344 344 343 344 343 342 344 345 345 344 345 345 345 344 342 341 338 336 333 332 331 329 328 328 328 329 323 322 324 323 321 323 325 325 326 327 328 329 327 327 326 326 325
343 343 343 343 344 345 344 343 344 346 348 347 346 346 346 345 343 343 343 341 343 343 341 341 342 343 343 344 345 345 346 346 348 349 352 351 351 350 349 348 347 347 346 344 343 343 343 343 344 347 348 347 347 348 346 346 345 343 340 337 334 332 330 328 327 327 327 325 323 323 325 325 324 322 323 325 324 325 327 328 327 326 327 327 326
Wind_Speed
16 19 19 21 18 17 18 19 18 18 19 17 17 16 16 17 18 17 17 17 17 17 17 17 17 17 17 17 17 17 15 15 16 15 13 14 14 14 15 16 16 16 16 17 17 16 16 15 14 14 14 13 13 13 13 12 12 13 12 11 11 11 11 11 10 10 9 9 9 9 9 9 9 9 9 9 9 8 6 4 8 3 7 9 9
20 20 18 20 19 18 18 19 19 19 19 20 19 17 17 17 17 17 17 17 17 17 17 17 17 16 16 17 17 17 16 14 14 14 14 15 14 15 15 16 16 16 16 17 17 16 16 15 14 13 13 12 13 13 12 12 12 12 11 10 10 10 10 10 9 8 8 8 8 8 8 9 9 8 8 8 8 8 7 6 9 4 8 8 8
19 19 19 22 20 18 18 20 19 19 18 17 17 17 16 16 16 16 16 16 16 17 17 16 16 16 16 17 17 17 17 15 14 15 15 15 15 15 16 16 16 16 17 16 16 16 15 14 13 13 12 12 13 13 12 11 11 11 10 9 9 9 8 8 7 6 6 5 6 8 10 9 8 8 8 8 8 7 7 9 11 9 8 7 7
20 17 18 21 20 18 19 19 20 20 19 19 19 19 16 16 15 16 15 16 16 17 17 16 16 16 16 17 17 16 16 16 15 15 15 15 15 15 16 16 16 16 17 16 15 15 15 14 13 12 12 12 12 12 11 10 9 9 9 8 7 7 6 6 5 5 3 3 3 7 5 7 8 8 8 7 7 7 8 8 9 10 7 7 6
18 17 18 19 20 19 18 18 21 21 21 21 22 20 18 17 16 16 16 16 16 17 17 16 17 16 17 17 17 16 16 16 16 15 15 15 14 15 15 16 16 16 16 16 15 14 14 14 13 12 12 12 11 10 9 8 7 7 8 6 5 5 5 5 5 4 3 2 4 10 6 7 6 7 7 6 7 6 7 7 7 7 6 6 6
17 17 18 18 19 19 18 17 18 19 21 21 23 22 21 19 19 18 18 18 17 17 17 17 17 16 17 17 17 16 16 15 16 16 15 14 13 15 15 16 16 16 16 15 15 14 14 14 13 12 12 11 10 9 8 6 6 6 5 4 3 3 3 3 3 3 2 4 9 3 4 6 7 7 5 6 5 5 6 6 6 6 5 3 7
20 16 17 18 16 18 18 18 18 19 20 22 22 22 22 21 20 20 19 19 19 19 18 18 18 17 17 18 17 17 16 16 16 16 15 14 13 15 16 16 16 16 15 15 15 14 14 13 13 12 11 10 9 8 7 6 5 4 4 3 2 1 1 1 2 2 5 7 1 4 4 6 6 6 6 5 5 4 4 4 4 4 3 3 3
17 15 17 17 16 20 18 17 17 17 17 17 21 23 21 20 20 20 20 21 19 19 19 18 18 17 17 17 17 17 17 17 16 16 15 14 13 14 16 16 15 15 15 15 14 14 14 13 12 11 10 9 8 7 7 6 4 4 4 3 2 0 2 3 3 3 6 6 4 2 3 5 6 6 6 5 4 3 3 3 4 3 1 3 3
17 17 17 17 17 25 19 17 17 18 17 17 17 18 20 21 20 20 20 19 19 19 18 18 18 17 16 16 16 16 16 16 16 16 15 14 13 13 14 15 16 15 15 15 14 13 13 13 11 10 9 8 8 7 6 5 4 3 4 3 2 1 2 4 5 7 8 2 1 4 1 5 5 6 6 4 3 3 2 2 8 4 4 3 6
17 17 16 15 17 25 20 18 17 18 18 17 17 17 16 16 17 18 18 18 18 18 18 18 18 18 16 15 15 15 16 16 15 15 15 15 13 13 13 14 15 15 15 15 14 13 13 12 11 10 9 8 7 7 6 5 3 3 3 3 1 0 3 5 7 9 5 3 4 3 4 10 5 5 8 3 2 2 2 5 9 9 7 1 4
17 16 15 14 22 24 20 19 18 18 19 18 18 18 17 16 15 15 17 18 18 18 17 17 17 17 15 15 15 15 15 15 15 15 16 16 15 14 14 13 13 14 15 14 14 14 13 12 11 10 8 7 6 6 5 5 3 2 2 3 2 1 3 7 10 5 2 4 5 3 6 3 2 5 7 2 2 2 2 3 3 3 0 2 3
16 15 14 13 22 23 20 19 18 18 20 20 19 18 17 16 16 16 16 15 17 17 17 16 16 16 15 15 15 15 15 15 15 15 16 16 15 15 14 14 13 13 13 14 13 13 12 11 10 9 8 7 6 5 5 4 3 3 3 4 4 2 3 8 9 3 1 2 5 1 4 4 3 9 8 2 3 2 2 1 2 2 1 2 3
15 14 13 15 20 21 20 19 18 18 19 19 19 19 18 18 17 17 15 16 16 16 16 16 16 16 15 15 15 15 15 15 14 14 15 15 16 15 14 14 13 13 13 13 12 12 11 10 9 9 8 7 6 5 5 4 3 4 4 4 4 2 3 4 6 1 3 2 3 2 3 1 4 11 6 3 3 3 3 3 2 2 2 3 3
15 13 12 16 17 20 19 18 17 17 17 17 18 18 17 17 16 16 15 14 15 15 15 15 15 15 15 15 15 15 15 14 14 14 15 15 15 15 14 14 14 13 13 13 12 11 10 9 9 8 7 6 5 5 4 4 3 4 5 6 5 2 3 8 5 1 1 2 1 2 2 1 5 9 5 3 4 4 4 4 3 2 2 3 3
14 14 14 16 16 19 19 16 17 16 16 16 16 16 16 16 15 15 14 14 15 14 14 14 15 15 15 15 15 15 14 14 14 14 15 14 14 14 14 15 14 13 12 12 11 10 9 8 8 7 6 5 5 4 4 4 3 3 4 5 5 6 7 5 2 2 0 2 1 3 2 2 11 7 5 4 5 5 4 5 3 2 2 3 4
14 14 16 15 17 17 17 17 15 15 15 14 14 15 15 15 14 14 14 14 14 14 14 14 14 14 14 15 14 14 14 14 14 14 13 13 13 14 14 15 14 13 12 11 11 10 9 8 7 6 5 5 5 4 3 2 2 1 2 3 5 6 8 10 2 1 0 1 1 1 0 4 10 7 6 5 5 5 5 5 4 3 3 3 4
14 14 15 16 18 18 17 17 16 15 14 13 13 14 13 13 13 13 13 13 13 13 14 14 14 14 14 14 14 14 14 14 14 13 14 13 13 13 13 13 13 12 12 11 10 10 9 8 7 6 5 5 5 4 3 1 1 1 1 4 5 4 6 9 5 2 2 3 3 1 0 1 10 8 7 6 5 5 5 5 4 4 4 4 5
14 14 14 16 17 18 16 16 16 15 15 14 13 13 12 13 13 12 12 12 12 13 13 13 13 13 14 14 14 14 14 14 14 13 14 12 11 12 13 12 12 12 11 10 9 9 8 7 6 5 5 5 4 4 3 2 1 1 2 3 5 5 7 9 7 2 1 2 4 2 2 10 10 8 8 7 7 7 6 6 5 4 4 5 5
13 13 14 16 17 17 17 16 16 16 15 13 13 13 13 12 12 12 11 12 12 13 13 13 13 13 14 14 15 15 14 14 13 13 12 11 12 12 11 11 11 11 11 10 9 8 7 6 5 5 5 5 5 4 3 3 3 3 4 5 5 7 8 8 7 3 1 4 2 2 4 9 7 8 9 8 8 8 7 6 4 4 5 5 6
12 13 13 14 15 17 16 15 15 16 14 13 13 15 14 13 14 13 12 12 12 12 12 12 13 13 15 15 15 15 14 13 14 13 13 12 13 11 11 10 10 10 9 9 8 7 6 6 5 5 4 5 5 4 4 4 4 4 5 5 7 8 7 6 4 5 4 0 4 3 9 5 7 8 9 9 9 8 7 2 2 6 6 6 6
10 13 12 13 15 16 18 14 16 17 16 14 13 14 14 15 16 15 15 15 14 15 13 13 13 15 15 15 13 13 12 11 12 11 13 11 11 10 12 10 9 9 9 8 7 6 6 5 5 4 4 4 3 5 7 7 7 6 6 7 8 6 5 4 4 3 2 2 3 3 9 5 6 8 9 10 9 7 6 3 3 4 5 5 6
12 13 13 13 14 15 17 17 15 17 16 13 11 11 13 15 15 15 14 15 15 16 15 14 14 13 13 13 12 11 10 10 10 12 10 11 11 11 11 10 8 8 7 7 6 5 5 5 4 4 3 2 3 6 9 11 11 10 9 10 8 6 3 3 3 5 2 2 3 7 5 4 5 8 9 10 9 7 6 6 4 4 6 6 6
12 12 13 15 14 14 17 17 17 17 17 15 12 12 15 14 15 14 13 16 15 15 14 14 13 13 14 13 11 10 10 10 10 10 9 12 10 11 10 9 8 7 7 6 6 5 5 5 3 2 1 5 7 6 5 6 8 13 10 9 5 3 3 3 4 4 4 2 4 9 4 4 5 8 9 10 9 8 7 4 3 5 6 6 7
13 12 14 14 16 15 17 17 17 18 16 13 12 12 13 13 13 13 12 13 13 13 14 13 12 13 13 11 10 10 10 9 11 12 10 10 10 10 9 9 8 7 7 6 7 5 5 5 3 3 7 7 6 5 5 4 4 3 4 3 3 2 4 3 4 3 4 1 3 7 3 3 5 6 8 8 8 8 7 3 3 5 4 5 6
11 12 13 15 18 16 17 17 17 17 17 14 13 13 13 13 13 13 13 13 13 13 12 12 12 13 13 11 11 10 10 9 10 10 10 9 9 8 8 7 7 7 9 6 6 7 7 7 6 7 7 6 5 4 3 3 3 3 2 3 2 3 4 3 2 4 4 3 4 5 3 3 3 5 6 7 8 8 5 3 5 3 4 5 6
13 12 14 15 17 17 18 16 17 17 16 14 14 13 14 13 13 13 13 12 13 12 11 11 11 12 12 11 10 10 10 9 10 10 9 8 8 8 8 7 7 6 7 5 5 4 6 5 6 6 5 5 4 2 3 3 3 3 3 2 3 3 3 3 2 2 3 3 6 5 3 3 3 4 5 7 7 7 4 6 4 5 4 3 5
13 13 13 14 16 17 19 18 17 16 17 15 13 13 13 13 12 13 13 13 12 12 12 11 11 12 12 11 10 10 10 9 9 10 9 8 7 7 7 6 6 5 5 4 4 4 4 4 4 4 4 4 5 4 4 5 4 4 3 3 2 4 3 3 3 3 4 3 6 5 3 3 3 4 6 7 7 6 4 4 6 2 1 3 3
12 13 14 14 16 19 20 19 17 18 16 16 15 13 13 12 13 12 12 12 12 12 11 11 11 11 12 10 10 9 10 9 9 9 9 8 8 7 6 6 6 5 5 4 5 5 5 3 4 4 4 5 6 5 4 3 4 4 4 4 3 3 3 4 3 3 3 2 3 6 3 1 4 5 6 8 7 5 6 6 5 4 4 7 7
14 14 13 15 17 18 20 19 19 19 17 15 15 13 13 13 12 12 13 12 12 11 11 11 11 11 11 11 11 10 10 9 9 9 9 9 8 7 6 6 6 5 5 4 4 4 4 4 4 4 4 4 4 4 4 4 3 4 4 5 3 4 2 3 2 3 2 2 2 7 6 4 7 7 7 8 8 7 7 7 7 7 8 8 9
14 14 15 14 16 19 20 20 19 18 17 16 13 13 13 13 13 13 12 12 11 11 12 10 10 10 11 12 11 10 9 9 9 9 9 8 8 7 6 6 5 4 4 4 4 4 4 4 4 5 5 5 5 3 3 4 5 4 4 4 2 4 2 1 2 2 2 2 2 5 9 6 7 7 8 9 9 9 9 9 9 8 8 8 9
15 17 16 16 16 18 19 19 19 17 16 16 14 14 14 13 13 12 12 11 11 11 11 10 11 10 10 12 12 10 9 8 9 9 8 9 8 8 8 7 5 5 4 4 3 4 3 3 4 4 5 5 4 3 5 4 4 5 2 4 2 3 2 2 2 2 4 3 3 3 7 7 7 8 9 9 9 10 10 10 9 10 11 8 8
18 19 17 16 17 19 20 19 19 17 16 17 15 14 14 13 13 12 12 12 12 11 11 11 11 10 10 11 11 9 9 8 9 9 8 8 7 7 8 6 5 5 4 4 4 4 4 4 3 4 2 3 3 4 3 4 4 4 4 3 2 2 2 1 3 2 3 4 4 3 1 7 6 5 7 9 10 10 11 10 12 12 9 8 9
14 17 16 16 19 19 19 19 18 18 18 17 15 13 13 12 12 12 11 11 12 11 11 11 10 10 10 11 11 11 9 8 8 8 8 7 7 7 7 7 5 5 5 4 3 4 4 4 4 4 4 5 4 4 4 3 3 4 4 3 1 2 2 3 2 2 3 4 3 3 0 5 6 6 9 9 9 11 11 13 14 11 10 9 10
13 13 16 17 15 14 14 14 17 18 18 16 14 13 14 13 12 12 12 12 11 11 11 11 10 10 10 11 11 11 9 8 8 8 7 6 6 6 7 6 5 6 5 5 5 5 5 5 5 6 5 5 5 5 4 4 3 2 2 2 2 2 3 3 2 3 2 3 4 3 1 8 6 7 8 11 10 10 14 14 12 12 11 9 9
12 14 17 17 16 15 14 14 16 17 17 16 16 14 14 12 12 12 11 12 12 12 11 10 10 10 10 10 11 10 10 9 8 7 7 6 6 6 6 6 6 6 6 5 5 5 5 5 5 6 6 6 5 4 4 3 3 3 2 2 2 1 2 3 2 4 3 2 3 2 2 3 5 6 8 7 11 13 13 13 12 10 10 9 7
16 15 16 15 16 16 17 16 17 18 16 15 15 13 13 12 12 12 11 13 11 11 11 10 10 9 9 9 11 11 10 9 8 8 7 6 6 6 6 5 6 6 5 5 5 5 5 5 5 6 5 6 6 5 4 3 2 2 1 2 2 3 4 3 2 3 2 3 1 2 3 4 4 5 6 5 6 9 12 12 11 10 10 10 10
17 16 17 17 18 19 16 17 19 19 17 16 15 13 13 13 13 12 12 12 11 11 11 10 10 10 9 9 10 10 10 10 9 8 7 6 6 5 6 6 6 5 5 4 5 5 5 5 5 6 5 5 6 5 2 2 2 0 2 2 3 3 4 3 2 2 1 1 0 3 4 5 6 6 4 6 6 7 11 13 13 14 14 13 12
16 17 18 16 16 17 15 14 15 14 14 14 14 13 12 13 12 12 12 12 12 11 10 11 10 9 9 9 10 10 9 10 9 8 7 6 6 6 5 6 6 5 5 5 5 5 5 6 6 5 5 5 5 3 3 3 1 1 1 2 3 4 3 2 1 3 2 1 0 3 4 5 5 4 4 5 6 6 7 12 16 15 13 13 13
13 17 17 16 14 14 12 12 14 14 13 13 14 14 13 12 11 12 12 12 11 11 11 10 10 9 9 9 9 9 9 10 9 9 7 7 7 6 6 6 6 6 5 6 6 5 5 5 5 5 4 5 5 2 2 2 1 1 1 2 3 2 3 1 3 1 1 1 2 3 4 5 5 5 5 5 4 5 5 5 4 5 8 12 13
14 13 17 15 13 14 13 12 14 14 13 11 12 13 13 13 13 12 12 12 12 11 11 10 9 9 9 9 9 9 9 9 10 9 7 7 7 7 7 7 7 6 6 6 6 6 6 6 6 6 6 5 4 3 3 3 1 0 2 2 2 2 2 2 2 2 2 2 2 4 4 5 5 5 4 3 4 4 3 2 2 4 6 10 12
16 17 16 16 15 15 13 15 14 15 14 13 15 13 14 13 13 13 13 12 12 11 10 10 9 8 9 9 9 9 9 10 9 9 8 7 6 6 7 7 7 6 6 6 6 5 6 6 6 5 7 6 5 4 2 2 3 2 4 3 1 2 2 2 1 2 2 2 2 3 3 4 4 4 4 2 3 3 2 2 2 2 2 4 10
17 19 18 17 16 14 15 14 12 16 15 15 14 12 13 13 13 13 12 12 12 11 11 10 9 8 9 9 9 9 10 10 9 9 8 8 7 7 7 7 6 6 5 6 7 6 6 6 6 6 6 6 5 5 2 4 4 3 3 3 2 1 2 1 1 1 3 2 2 2 3 3 3 3 3 3 3 2 2 2 2 3 3 5 5
17 18 17 15 15 15 15 14 14 13 15 15 14 13 11 11 12 12 12 10 10 9 9 9 8 8 9 9 9 9 10 9 10 10 8 8 8 7 7 7 7 6 6 6 6 7 7 8 7 7 6 6 6 3 5 4 4 3 3 2 1 1 2 2 1 1 1 2 1 2 2 3 3 2 2 2 2 3 2 3 3 4 5 4 4
17 17 16 17 13 14 15 15 14 13 15 15 14 13 12 12 12 10 11 9 8 8 9 8 8 10 10 10 9 9 10 9 10 10 8 8 9 7 6 6 6 6 6 6 7 7 7 7 8 7 6 6 7 6 4 5 4 6 5 2 2 6 3 6 2 2 2 2 2 0 1 2 3 4 3 3 2 1 3 4 4 5 5 4 3
18 18 17 16 12 17 17 17 14 15 14 16 16 14 12 11 10 9 10 10 8 10 10 9 9 10 9 9 9 10 10 10 10 10 9 9 8 7 6 6 6 6 6 6 6 7 8 8 9 8 8 8 8 6 6 6 7 4 3 5 2 1 4 1 3 2 2 1 2 2 0 2 4 4 3 3 2 2 3 4 4 5 4 4 4
18 17 16 17 16 16 17 16 13 14 15 17 15 13 12 12 12 12 12 12 11 11 11 11 11 10 10 9 10 10 10 10 10 10 10 8 8 8 8 7 7 6 6 6 6 7 8 8 9 9 10 10 8 6 7 7 6 6 6 3 2 2 6 4 2 3 3 1 1 2 1 2 2 3 3 3 3 3 3 3 4 4 4 4 4
18 15 15 16 16 16 16 16 14 15 15 16 16 12 12 12 14 13 12 12 11 9 9 9 9 9 8 9 9 10 11 11 10 10 10 9 8 8 8 7 6 6 5 6 6 7 7 8 7 8 9 9 9 9 9 6 6 7 6 5 4 5 4 4 5 4 5 6 3 3 2 2 3 4 5 4 5 4 4 3 4 4 4 4 4
16 15 14 15 17 17 16 16 14 15 14 15 15 13 12 12 13 13 11 11 11 10 10 9 8 8 9 10 9 9 10 10 10 10 10 9 8 7 7 7 6 6 6 6 6 7 7 6 7 8 8 7 8 8 8 7 7 6 7 6 5 6 6 5 4 5 6 5 6 3 1 3 4 4 3 4 5 5 4 3 4 4 4 4 3
17 16 17 17 16 16 17 15 15 15 15 17 15 14 11 12 12 12 11 11 11 10 9 9 9 8 9 9 9 9 9 10 10 10 10 9 8 7 8 7 7 6 6 6 7 8 9 8 7 8 8 8 8 8 7 7 7 6 6 6 5 6 6 6 6 5 6 7 5 6 5 3 3 3 4 2 3 3 4 4 3 3 4 4 4
17 17 16 16 16 16 17 18 18 15 15 16 15 15 14 12 12 13 13 11 10 9 9 9 9 10 10 10 10 9 9 10 9 10 9 9 9 8 8 9 8 7 7 7 8 9 9 9 8 8 8 9 7 7 6 5 6 5 6 5 6 6 6 5 5 6 6 8 8 6 7 8 8 6 5 6 6 6 5 4 4 4 4 4 4
16 18 17 17 17 16 18 19 18 15 16 16 16 16 14 13 12 13 13 12 12 12 10 10 9 10 10 10 10 9 9 9 9 9 8 9 9 9 9 9 8 7 8 8 8 7 8 8 8 8 9 8 6 6 5 6 6 6 7 6 7 8 7 7 6 6 6 6 7 6 6 9 9 7 6 7 6 6 5 5 4 4 3 3 3
Wind_Direction
163 147 145 145 155 158 160 161 160 157 155 152 141 139 139 141 139 138 138 136 136 135 134 133 134 135 136 136 135 134 133 131 131 130 125 122 121 119 118 117 116 115 113 110 107 104 103 103 102 99 97 93 91 90 86 82 78 78 77 75 73 70 69 68 67 67 70 76 78 79 80 86 83 78 79 76 75 73 65 18 336 97 73 78 70
156 146 143 150 153 158 159 161 160 158 156 152 145 139 143 143 142 142 139 139 138 138 136 135 136 137 137 137 137 136 135 133 131 127 126 125 121 121 120 119 118 115 113 111 108 106 106 106 103 100 97 96 93 87 82 79 77 77 74 72 69 66 63 63 63 64 65 72 77 81 78 77 75 75 73 70 69 65 53 19 7 3 75 75 70
147 142 144 149 153 157 159 160 159 158 156 150 141 139 143 144 144 143 142 140 139 139 138 137 137 138 137 138 138 139 138 136 131 130 129 127 125 123 121 121 118 116 115 112 111 110 106 106 105 104 100 92 87 84 81 76 77 77 74 70 71 70 68 67 61 62 69 75 88 101 103 88 77 76 71 68 66 64 49 41 23 27 68 56 75
145 143 144 144 153 156 158 159 159 157 154 152 146 144 146 147 146 145 143 142 141 140 140 139 139 139 139 140 140 140 139 138 136 134 131 129 126 124 124 122 120 118 115 113 113 111 111 111 109 106 97 90 86 83 80 78 75 77 74 72 71 72 75 74 76 69 68 89 218 203 145 124 110 80 77 73 67 59 56 52 54 56 73 75 67
144 143 143 149 157 158 159 158 158 156 154 153 149 148 150 150 149 147 145 144 142 143 141 140 141 140 142 142 141 141 140 138 136 133 130 129 127 127 125 124 120 119 117 115 114 113 113 111 109 103 97 91 87 85 83 81 78 76 74 70 78 86 84 82 77 75 62 270 261 260 86 95 99 90 82 78 76 66 61 55 56 60 70 75 76
145 145 146 152 157 158 159 159 158 156 156 153 150 150 153 153 152 152 151 149 147 145 144 143 143 143 143 143 142 141 140 138 136 133 131 129 128 127 126 124 122 121 119 117 115 115 113 109 107 103 99 95 95 91 89 83 75 74 78 75 75 68 96 113 93 89 217 247 245 216 92 93 102 114 97 94 80 71 60 51 45 51 54 58 86
143 145 149 153 155 159 160 160 159 159 158 154 150 150 153 153 153 153 152 151 151 149 148 146 145 144 144 144 143 142 140 138 137 134 132 130 129 130 127 125 124 123 120 118 118 117 114 113 110 106 102 102 100 96 91 81 71 71 70 67 68 99 137 147 169 142 245 250 156 78 92 80 93 101 125 100 91 76 88 69 53 60 57 11 314
140 147 152 154 157 153 160 161 159 156 157 154 149 150 151 152 152 154 153 154 152 151 149 147 146 146 145 144 143 141 141 139 137 135 134 131 130 130 129 127 125 124 123 122 123 120 118 116 112 109 108 108 104 99 92 84 69 61 56 52 15 95 225 209 217 203 251 269 68 65 87 74 81 96 125 125 110 102 96 134 120 152 82 32 22
145 150 154 154 154 151 158 160 160 158 158 155 150 148 151 152 153 154 154 153 152 151 150 148 148 147 145 143 142 142 141 139 137 136 134 133 132 130 129 128 127 126 125 126 125 125 120 118 117 116 116 110 106 103 94 84 70 48 51 49 21 309 211 219 217 219 233 225 84 83 9 110 84 90 124 130 135 126 141 229 179 145 128 35 330
147 149 154 156 155 152 157 159 160 160 160 158 153 151 151 152 153 154 154 153 152 151 151 150 149 147 146 144 144 143 141 140 138 136 136 135 131 128 126 128 129 128 127 128 128 126 123 122 124 124 118 112 109 104 95 87 74 45 49 46 17 191 231 211 211 220 255 108 116 79 54 338 51 65 111 130 154 142 150 290 354 30 44 33 40
147 149 155 156 151 150 156 158 159 162 163 161 156 154 154 155 156 158 157 156 154 153 152 152 150 148 147 147 145 143 141 138 137 138 138 137 134 131 130 129 129 130 130 131 130 128 128 129 128 125 118 113 109 104 96 87 68 40 36 49 41 209 203 210 208 213 199 108 85 99 107 279 356 78 114 138 190 163 190 337 10 30 323 8 14
148 149 153 154 140 150 154 157 160 161 164 163 158 156 157 159 161 163 162 160 156 156 154 153 152 151 150 148 146 144 141 140 139 140 140 140 137 136 133 132 132 131 131 131 131 131 130 131 129 127 123 118 112 100 96 86 59 25 28 41 59 83 190 212 234 88 146 101 92 360 98 186 82 104 122 176 174 207 241 210 224 238 290 313 340
147 149 149 145 149 150 154 156 159 161 164 164 161 159 160 162 164 166 165 163 160 159 157 154 153 153 152 149 147 144 143 141 140 141 142 142 141 140 138 137 136 135 133 132 132 132 133 133 133 129 125 122 113 105 96 85 58 18 18 34 54 99 224 235 249 149 103 108 91 177 125 33 98 111 145 203 194 223 229 223 230 245 286 302 318
150 147 145 149 158 153 152 156 159 161 163 163 163 162 161 163 166 167 168 164 163 161 158 156 155 154 152 150 147 145 143 142 142 143 145 144 143 142 143 142 141 136 132 134 134 135 136 138 135 130 127 122 114 106 99 97 69 34 14 10 20 344 284 249 283 131 86 91 206 50 61 125 89 122 149 217 222 222 235 233 241 251 274 293 293
148 147 144 146 152 159 152 154 158 158 160 161 163 161 161 163 165 168 168 166 165 162 159 159 157 154 152 151 148 146 144 144 143 145 147 147 146 145 142 142 138 135 135 136 139 139 140 141 138 134 126 121 109 99 91 69 65 40 13 357 348 337 321 282 188 73 83 29 78 212 152 168 107 136 159 211 242 226 235 248 256 255 271 280 283
144 148 146 145 154 159 160 155 155 155 157 158 160 161 161 162 163 167 169 168 166 162 160 160 159 155 153 151 149 147 146 145 146 146 146 147 147 147 141 141 141 139 139 141 144 145 145 145 144 138 132 118 110 108 97 79 53 33 351 347 327 330 326 320 315 338 112 213 98 315 149 95 119 129 182 220 243 231 239 257 268 267 270 271 281
140 148 152 150 156 162 166 164 156 152 152 156 159 161 162 159 159 166 170 169 165 162 162 161 159 156 153 151 150 149 147 146 145 145 148 149 150 150 149 147 148 148 148 149 150 152 152 154 151 146 132 117 114 112 109 95 346 360 342 312 321 298 306 308 305 272 348 35 327 340 334 94 136 154 191 215 232 232 239 253 260 265 268 268 272
143 154 155 154 161 166 165 167 156 163 161 158 157 160 160 158 158 165 170 169 164 161 163 163 159 157 154 152 150 149 148 146 146 147 149 152 149 151 151 150 152 154 155 156 156 157 159 158 157 145 129 122 120 126 131 170 245 262 272 285 286 290 290 294 283 281 222 1 263 89 298 88 137 166 194 208 228 231 230 242 259 271 271 270 272
147 160 161 159 162 167 166 167 165 169 165 169 170 160 160 156 157 162 168 169 163 162 163 164 160 156 155 152 152 150 150 149 147 149 152 149 154 153 153 153 155 159 160 158 156 159 160 158 151 138 135 130 131 135 167 195 212 240 250 265 269 262 264 267 264 285 278 232 254 282 80 115 156 173 196 210 220 230 230 237 261 274 272 267 266
154 165 166 165 163 167 170 168 169 170 169 174 171 171 163 160 159 161 168 167 164 161 161 162 161 156 159 156 154 154 155 155 154 154 155 157 159 167 153 155 163 164 166 165 160 160 160 160 149 153 144 141 135 162 201 215 221 227 243 243 252 254 246 241 302 301 292 277 354 292 101 138 162 187 203 210 220 229 233 261 330 297 299 301 280
163 169 170 170 165 169 173 170 171 171 171 173 172 172 166 165 165 166 172 169 167 167 163 162 161 163 165 161 159 168 167 163 166 168 157 168 172 149 159 159 166 172 169 169 166 168 166 160 159 154 154 140 164 215 216 209 214 218 220 234 237 241 245 293 292 281 257 299 201 80 103 138 188 197 210 215 217 227 232 116 261 253 278 291 290
174 167 172 175 168 174 177 173 172 172 172 173 171 172 165 178 173 171 177 172 173 173 170 175 174 169 176 162 176 174 175 170 178 163 176 164 170 160 167 168 173 175 171 171 167 168 172 167 164 153 119 162 229 240 194 198 200 198 209 220 229 241 233 261 280 281 314 231 269 92 113 159 201 210 213 219 219 221 228 161 205 225 246 254 268
179 171 167 176 174 174 179 177 174 173 171 173 170 170 167 176 175 173 177 177 175 180 178 179 182 175 179 178 185 182 183 172 181 174 186 169 162 163 168 174 176 167 172 169 171 170 173 179 155 103 220 236 234 225 226 191 177 188 205 216 241 263 299 285 269 262 261 25 299 98 131 196 205 213 215 218 216 217 227 163 189 210 216 242 255
176 176 165 171 178 181 181 178 174 174 171 174 172 171 171 176 175 174 176 179 174 185 181 183 187 181 182 186 193 186 188 178 168 173 172 173 150 163 169 172 173 173 170 178 167 175 172 169 183 245 223 222 221 214 218 208 221 205 219 245 258 283 259 250 258 274 298 296 45 95 137 214 215 219 217 214 211 215 224 156 197 238 238 251 260
172 171 168 172 178 181 181 180 175 175 176 175 174 174 171 177 176 175 179 180 179 183 183 185 191 186 188 190 195 192 190 182 175 177 187 179 177 181 177 185 183 178 185 200 187 162 199 198 188 206 224 216 221 228 246 246 236 238 239 258 272 274 268 242 266 305 308 324 72 103 175 221 222 219 216 206 203 210 224 114 215 240 262 266 272
165 177 174 170 175 181 181 179 177 177 177 175 178 172 168 179 177 177 180 183 182 183 185 188 191 191 193 191 193 194 196 187 180 180 190 180 180 183 181 184 184 179 180 199 192 180 198 207 201 200 212 216 222 234 222 251 238 225 262 260 270 264 272 291 295 290 286 295 111 126 184 211 210 206 201 191 191 201 197 153 190 228 251 292 325
171 176 173 171 174 181 183 180 178 178 179 179 179 172 178 180 178 179 181 183 181 183 187 190 191 190 194 193 189 196 197 195 183 187 191 181 189 187 186 176 182 181 174 197 182 190 209 198 207 210 215 221 218 208 217 213 258 280 232 263 309 297 287 290 301 291 293 291 101 121 180 203 187 185 182 173 179 183 180 163 184 209 36 2 15
168 175 173 173 175 181 182 182 179 179 180 181 180 177 179 179 180 176 187 180 183 184 188 190 190 190 192 196 194 199 198 197 190 190 191 187 191 195 187 175 185 184 171 202 181 193 199 205 207 215 220 218 210 218 226 213 212 240 292 267 266 258 302 308 319 307 294 291 116 116 121 156 162 168 164 158 164 153 141 142 144 118 93 91 102
170 176 177 177 179 180 184 182 180 181 182 182 181 181 181 180 179 180 188 172 187 186 188 188 192 191 191 196 197 206 201 198 196 193 192 194 192 194 192 188 186 182 171 195 196 189 201 202 200 218 210 222 223 219 222 235 234 236 254 273 283 302 326 306 320 307 303 338 335 94 107 118 145 155 149 146 141 139 130 126 121 114 110 112 104
177 176 179 183 180 182 184 183 181 181 180 183 183 181 182 181 180 183 187 174 189 188 184 190 192 194 192 198 200 206 204 199 199 199 196 193 195 191 198 192 184 178 184 185 196 201 202 195 204 217 213 209 230 210 239 227 242 256 261 292 302 291 299 252 294 295 331 324 346 109 112 137 143 137 136 136 135 128 116 115 118 116 110 95 99
179 184 184 185 182 180 184 181 180 181 180 185 184 182 183 183 180 184 184 182 189 189 187 191 195 196 194 197 200 203 204 202 200 200 199 196 194 195 200 195 191 186 189 193 188 203 204 210 211 212 216 221 214 207 224 245 266 270 270 271 288 274 262 336 305 325 315 336 344 358 113 136 147 136 139 137 127 118 113 116 114 98 90 98 87
188 186 185 182 180 182 184 181 181 181 182 185 183 183 183 182 182 186 183 184 187 191 190 196 197 196 196 195 199 201 203 202 202 199 202 194 196 198 198 200 194 189 189 198 190 199 204 208 206 232 265 258 217 227 226 269 275 287 302 290 305 312 277 297 301 349 341 347 331 331 94 112 74 105 122 117 113 112 118 114 99 99 107 102 94
193 188 183 178 180 181 183 183 181 180 184 183 183 183 182 180 181 187 185 185 187 191 194 197 197 197 196 198 197 198 198 201 201 201 201 196 196 198 203 198 194 192 184 193 194 190 207 203 205 222 217 220 236 224 242 240 265 277 297 303 261 267 326 284 326 339 340 314 312 313 193 102 112 85 88 100 102 111 112 100 97 103 101 94 92
187 184 178 183 178 181 182 179 182 180 185 183 181 182 182 181 183 187 185 187 190 193 195 197 197 197 195 198 199 196 194 200 194 197 195 198 192 198 204 195 196 189 188 187 198 204 207 208 200 202 209 221 215 229 228 239 260 282 253 320 294 326 310 315 354 334 317 309 330 304 168 119 142 140 104 81 85 89 90 95 97 94 86 78 68
182 179 181 183 176 178 177 181 179 180 183 184 182 180 181 183 184 187 187 189 192 195 196 197 195 199 196 196 199 196 196 192 192 190 194 206 188 191 196 191 183 182 192 190 203 191 205 202 207 208 200 218 229 221 239 258 265 268 27 289 308 320 273 300 326 311 322 345 286 334 50 130 140 124 117 116 88 87 91 94 97 98 94 93 98
186 180 182 179 178 181 181 180 181 178 181 184 177 179 178 183 183 188 187 192 194 196 196 198 195 196 202 194 193 197 195 194 191 192 196 205 197 192 191 187 171 185 195 174 203 198 197 203 200 219 209 213 223 216 213 239 240 304 294 299 308 303 295 297 329 294 325 289 6 64 88 123 133 126 135 111 102 95 97 101 103 102 97 88 75
188 179 182 179 178 182 184 180 180 178 178 177 177 176 178 182 186 186 191 191 195 198 197 194 199 198 200 201 191 193 196 194 196 194 202 202 205 197 183 176 180 198 181 187 199 206 183 196 197 207 223 234 219 220 213 231 246 242 239 299 295 289 282 294 273 287 282 330 230 109 128 113 107 125 112 115 120 113 95 94 87 80 74 70 64
186 183 182 180 181 182 180 177 178 174 171 174 175 178 180 182 187 185 191 193 198 198 200 198 196 199 200 202 191 188 196 193 196 193 202 206 206 200 185 176 193 198 193 193 203 196 190 191 196 198 210 232 247 230 209 240 259 271 288 322 325 303 311 291 285 284 263 179 79 102 131 128 141 119 115 119 126 126 121 102 98 84 75 76 70
180 176 177 182 181 175 177 176 173 175 170 167 174 182 181 185 186 190 190 197 200 201 202 201 200 196 201 199 193 190 193 194 194 196 199 202 207 200 203 180 201 201 199 199 195 194 188 190 203 189 209 220 250 243 261 266 234 309 336 2 319 342 312 332 284 275 306 13 118 131 148 135 122 114 117 124 129 142 141 150 140 112 89 80 73
172 172 179 183 183 173 183 176 175 172 169 170 179 183 183 185 184 189 192 199 200 202 200 200 197 198 198 199 191 193 190 193 194 194 199 203 204 200 201 191 206 204 199 206 198 189 187 189 199 204 195 210 231 251 219 237 208 27 30 23 3 348 344 302 307 271 254 201 174 159 161 137 133 122 124 129 132 130 144 144 124 111 116 103 95
170 176 180 185 183 178 174 175 178 173 173 177 183 184 183 181 189 193 194 193 201 199 199 202 198 198 194 196 194 192 193 189 193 192 198 201 208 203 195 203 203 205 202 206 209 203 189 193 191 200 201 204 208 223 216 237 199 164 26 13 36 27 29 328 287 284 265 237 175 169 167 161 147 133 120 117 121 141 127 136 111 94 80 141 123
174 176 184 185 183 175 179 178 173 175 180 187 181 188 184 185 185 190 195 193 196 199 198 197 198 190 195 198 196 192 193 191 192 192 196 199 200 199 200 201 201 199 202 203 199 207 197 199 195 193 206 210 212 203 189 216 177 116 164 234 238 112 33 360 294 292 278 269 245 167 172 164 147 147 153 151 129 135 138 119 71 49 49 39 31
173 175 188 181 179 179 180 177 177 170 185 188 182 186 187 187 190 189 192 190 198 197 195 194 184 188 193 198 198 196 192 195 192 193 194 197 200 200 199 203 200 200 199 203 203 206 206 204 200 205 199 202 212 150 173 216 169 149 134 123 128 313 203 192 166 251 291 305 253 174 159 158 135 163 186 172 175 152 102 61 72 74 63 40 40
174 181 184 184 179 181 181 177 174 175 187 188 185 183 183 180 186 179 190 192 184 191 200 183 185 197 198 197 197 195 193 194 193 191 195 197 200 201 197 197 198 202 209 208 205 210 206 209 208 216 220 208 210 181 193 174 184 165 184 199 203 129 308 245 209 147 12 14 348 171 190 127 150 185 208 202 211 132 103 99 89 80 68 58 57
180 182 182 183 183 184 181 177 173 182 188 181 183 179 175 179 181 180 183 192 200 194 194 194 196 195 198 194 194 192 193 197 195 195 195 199 202 202 204 202 202 200 210 217 213 222 214 209 213 214 216 225 216 179 192 200 194 222 152 149 196 185 165 257 221 178 101 217 33 341 62 195 207 218 203 194 182 126 117 108 99 94 90 93 84
183 186 183 183 180 182 180 176 171 185 186 180 182 175 176 181 180 186 187 192 196 192 194 195 192 192 196 192 197 193 195 198 198 198 201 198 200 204 207 207 204 205 211 220 222 218 224 222 215 219 219 221 240 197 198 192 215 196 230 266 281 217 161 142 214 210 146 99 94 339 316 210 213 215 199 181 181 155 136 135 108 101 97 86 75
186 181 179 182 181 181 179 174 177 183 183 179 179 178 176 184 187 190 191 192 195 192 196 195 192 189 189 191 192 193 197 196 199 198 199 201 201 205 208 210 208 206 208 219 225 228 223 222 225 222 228 218 217 223 219 200 195 214 218 232 251 279 202 172 196 246 225 162 204 185 196 235 200 195 189 184 175 167 166 136 130 122 115 107 97
187 179 176 178 182 182 176 176 183 184 180 177 177 176 177 183 188 192 191 192 196 192 191 191 193 190 186 186 188 188 195 192 195 200 197 199 199 204 212 214 210 206 209 213 221 225 225 222 225 228 226 227 212 224 223 211 210 198 200 207 219 252 247 192 210 255 276 253 171 170 191 212 210 187 189 178 177 175 168 148 147 141 131 111 116
185 178 179 181 180 177 175 180 186 182 181 176 171 175 183 184 188 191 192 195 195 195 188 186 184 182 185 185 186 181 187 196 192 195 199 197 198 204 209 210 209 209 208 214 216 218 220 222 215 217 214 213 217 223 230 219 214 217 179 198 199 225 226 213 194 211 246 261 221 188 194 173 203 177 184 203 182 182 194 177 159 124 120 126 117
184 179 179 180 179 176 176 182 184 184 179 171 168 175 184 185 188 190 191 192 191 189 186 177 183 182 183 180 185 177 185 191 191 194 199 197 204 207 208 209 207 209 212 212 213 213 214 218 219 217 211 212 213 218 220 219 216 218 207 189 191 206 219 199 192 201 232 251 273 226 196 201 198 190 189 196 188 192 181 163 163 162 142 135 123
181 178 177 180 178 177 177 184 186 180 177 168 171 178 183 185 188 187 191 189 187 188 185 178 183 178 182 179 181 185 183 185 189 191 197 202 202 208 210 209 208 208 213 211 214 213 209 214 216 214 213 212 210 208 210 227 224 210 206 210 202 201 210 196 180 195 222 235 238 238 194 210 217 180 195 190 188 187 196 185 172 180 179 169 167